Havre, MT

3:25 PM MST on February 07, 2016 (GMT -0700)
Havre City-County

Weather History for KHVR - April, 2014

Change the Weather History Date:

Wednesday, April 23, 2014

  Actual Average Record
Temperature  
Mean Temperature 50 °F 47 °F  
Max Temperature 60 °F 61 °F 89 °F (2012)
Min Temperature 39 °F 33 °F -4 °F (1967)
Degree Days  
Heating Degree Days 15 18  
Month to date heating degree days 476 499  
Since 1 July heating degree days 7879 7617  
Cooling Degree Days 0 0  
Month to date cooling degree days 0 0  
Year to date cooling degree days 0 0  
Moisture  
Dew Point 31 °F    
Average Humidity 58    
Maximum Humidity 92    
Minimum Humidity 23    
Precipitation  
Precipitation 0.08 in 0.03 in 0.77 in (1900)
Month to date precipitation 0.47 0.58  
Year to date precipitation 2.27 1.73  
Snow  
Snow 0.00 in 0.10 in 1.30 in (1907)
Month to date snowfall T 2.6  
Since 1 July snowfall 44.4 36.8  
Snow Depth 0.00 in    
Sea Level Pressure  
Sea Level Pressure 29.56 in    
Wind  
Wind Speed 22 mph (WSW)    
Max Wind Speed 38 mph    
Max Gust Speed 48 mph    
Visibility 10 miles    
Events Rain    
T = Trace of Precipitation, MM = Missing Value Source: NWS Daily Summary

Daily Weather History Graph

Daily Weather History Graph

Search for Another Location

Airport or City:

Trip Planner

Search our weather history database for the weather conditions in past years. The results will help you decide how hot, cold, wet, or windy it might be!

Date:

Astronomy

Apr. 23, 2014 Rise Set
Actual Time 6:13 AM MDT 8:22 PM MDT
Civil Twilight 5:39 AM MDT 8:56 PM MDT
Nautical Twilight 4:57 AM MDT 9:38 PM MDT
Astronomical Twilight 4:09 AM MDT 10:26 PM MDT
Moon 3:17 AM MDT (4/23) 2:06 PM MDT (4/23)
Length of Visible Light 15h 17m
Length of Day
14h 08m
Waning Crescent, 34% of the Moon is Illuminated
Apr 23
Waning Crescent
Apr 29
New
May 6
First Quarter
May 14
Full
May 21
Last Quarter

Hourly Weather History & Observations

Time (MDT) Temp. Windchill Dew Point Humidity Pressure Visibility Wind Dir Wind Speed Gust Speed Precip Events Conditions
12:00 AM 48.0 °F - 45.0 °F 89% 29.44 in 10.0 mi WNW 11.5 mph - 0.00 in Rain Rain
12:11 AM 48.0 °F - 45.0 °F 89% 29.45 in 10.0 mi West 9.2 mph - 0.01 in Rain Light Rain
12:26 AM 48.0 °F - 45.0 °F 89% 29.47 in 6.0 mi West 9.2 mph - 0.03 in Rain Rain
12:53 AM 46.9 °F - 45.0 °F 93% 29.45 in 3.0 mi WSW 10.4 mph - 0.14 in Rain Heavy Rain
1:44 AM 46.0 °F 38.5 °F 44.1 °F 93% 29.48 in 10.0 mi West 19.6 mph 24.2 mph 0.07 in Rain Light Rain
1:53 AM 46.0 °F 39.3 °F 43.0 °F 89% 29.46 in 10.0 mi West 16.1 mph - 0.07 in Rain Light Rain
2:32 AM 45.0 °F 38.9 °F 42.1 °F 90% 29.49 in 10.0 mi West 12.7 mph - 0.01 in Rain Light Rain
2:53 AM 45.0 °F 39.3 °F 43.0 °F 93% 29.47 in 10.0 mi WSW 11.5 mph - 0.02 in Rain Light Rain
3:53 AM 45.0 °F 38.2 °F 43.0 °F 93% 29.48 in 10.0 mi SW 15.0 mph - 0.01 in   Overcast
4:53 AM 45.0 °F 38.2 °F 39.0 °F 80% 29.49 in 10.0 mi WSW 15.0 mph - N/A   Overcast
5:53 AM 43.0 °F 35.7 °F 35.1 °F 74% 29.52 in 10.0 mi West 15.0 mph - N/A   Overcast
6:53 AM 42.1 °F 34.5 °F 32.0 °F 67% 29.54 in 10.0 mi WSW 15.0 mph - N/A   Overcast
7:53 AM 42.1 °F 34.2 °F 32.0 °F 67% 29.55 in 10.0 mi SW 16.1 mph - N/A   Overcast
8:53 AM 45.0 °F 37.4 °F 30.9 °F 58% 29.57 in 10.0 mi WSW 18.4 mph - N/A   Overcast
9:53 AM 46.9 °F - 27.0 °F 46% 29.59 in 10.0 mi WSW 27.6 mph 33.4 mph N/A   Mostly Cloudy
10:53 AM 51.8 °F - 24.8 °F 35% 29.57 in 10.0 mi West 31.1 mph 41.4 mph N/A   Clear
11:53 AM 53.1 °F - 25.0 °F 34% 29.57 in 10.0 mi West 34.5 mph 41.4 mph N/A   Clear
12:53 PM 55.0 °F - 25.0 °F 31% 29.57 in 10.0 mi WSW 28.8 mph 44.9 mph N/A   Clear
1:53 PM 55.4 °F - 24.8 °F 31% 29.54 in 10.0 mi West 34.5 mph 42.6 mph N/A   Clear
2:53 PM 55.9 °F - 19.9 °F 25% 29.57 in 10.0 mi West 25.3 mph 36.8 mph N/A   Clear
3:53 PM 57.9 °F - 21.0 °F 24% 29.58 in 10.0 mi West 26.5 mph 42.6 mph N/A   Clear
4:53 PM 57.9 °F - 19.0 °F 22% 29.58 in 10.0 mi West 27.6 mph 36.8 mph N/A   Clear
5:53 PM 55.0 °F - 19.0 °F 24% 29.61 in 10.0 mi West 27.6 mph 35.7 mph N/A   Clear
6:53 PM 53.1 °F - 23.0 °F 31% 29.63 in 10.0 mi West 26.5 mph 34.5 mph N/A   Clear
7:53 PM 50.0 °F - 23.0 °F 35% 29.66 in 10.0 mi West 25.3 mph 34.5 mph N/A   Clear
8:53 PM 46.0 °F 38.3 °F 23.0 °F 40% 29.68 in 10.0 mi WSW 20.7 mph 28.8 mph N/A   Clear
9:53 PM 44.1 °F 36.5 °F 24.1 °F 45% 29.70 in 10.0 mi WSW 17.3 mph - N/A   Clear
10:53 PM 39.9 °F 31.4 °F 26.1 °F 58% 29.72 in 10.0 mi SW 16.1 mph - N/A   Clear
11:53 PM 39.0 °F 29.9 °F 27.0 °F 62% 29.72 in 10.0 mi SW 17.3 mph - N/A   Clear